Погода в Темире

Погода в Темире : погода сейчас, прогноз погоды и архив. Всё, что Вы хотите узнать о погоде в Темире!

Хотите узнать прогноз погоды в Темире? Тогда Вам сюда: Погода в Темире

Поиск расширенной информации на нашем сайте:

Полезная информация: матрасы ватные СПб

Другие новости

Новости СМИ2

Главная страница сайта

Новости сайта

03.07.2017

Напоминаем, что на нашем специализированном сайте Метеоцентр.Азия вы можете получить высокодетализированные автоматические прогнозы погоды по пунктам России, СНГ и мира в авиационном формате (включающие направление и скорость ветра, видимость, явления погоды, количество и форму облачности, нижнюю и верхнюю границу облачности).

Рекомендуем: Садовые домики дешевле - строительство садовых домиков. Срубы, срубы, срубы.

Погода в Темире - сегодня

Время (UTC), дата Ветер
(°,м/с) 
Видим.   Явления Облачность Т
(°С)
Тd
(°С)
f(%) Тe
(°С)
Pmin
(гПа)
dP
(гПа)
Po
(мм)
O2
(г/м3)
Тmin Tmax R s Состояние
почвы
03 19.08.17 110 (В) 20000 м    5/0 средняя 
[Ac cuf]
+17.4 +4.3 42 +18  1024.2  1.1  751  284           
06 19.08.17 110 (В) 20000 м    3/0 средняя 
[Ac cuf]
+24.9 +4.3 26 +25  1024.1  0.6  748  276  +16         
09 19.08.17 110 (В) 20000 м    3/0 средняя 
[Ac cuf]
+29.6 +4.4 20 +30  1023.1  -0.6  748  271           
12 19.08.17 130 (ЮВ) 20000 м    1/1 600 м 
[Cu hum]
+30.5 +5.2 20 +31  1022.9  -0.1  747  270           
15 19.08.17 120 (ЮВ) 20000 м    1/1 600 м 
[Sc diur, vesp]
+28.1 +6.7 26 +28  1023.1  -0.1  747  272    +33.1       
18 19.08.17 120 (ЮВ) н/о    ясно 
+21.4 +5 34 +21  1024.5  0.9  748  279    +33.1       
21 19.08.17 190 (Ю) н/о    ясно 
+17.6 +4.3 41 +19  1025  0.1  748  283           
00 20.08.17 350 (С) н/о    1/0 верхняя 
[Ci fib]
+14 +3.7 50 +15  1025.5  0.1  748  286           
03 20.08.17 тихо ()   20000 м    8/0 средняя, верхняя 
[Ac cuf|Ci fib]
+14.3 +3.5 48 +14  1025.9  0.5  749  286           
06 20.08.17 160 (Ю) 20000 м    8/0 средняя, верхняя 
[Ac cuf|Ci fib]
+26.5 +1.2 19 +27  1024.9  0.1  749  275  +12         
09 20.08.17 160 (Ю) 20000 м    3/0 верхняя 
[Ci fib]
+30.8 +3 17 +31  1023.6  -0.9  748  270           
12 20.08.17 150 (ЮВ) 20000 м    6/0 средняя, верхняя 
[Ac cuf|Ci fib]
+31.6 +3.8 17 +32  1022.3  -1.2  747  269           
15 20.08.17 160 (Ю) 20000 м    6/0 средняя, верхняя 
[Ac cuf|Ci fib]
+30.5 +3.9 18 +31  1021.3  -1.1  746  270    +32.4       
18 20.08.17 180 (Ю) н/о    3/0 верхняя 
[Ci fib]
+21.7 +3.7 31 +22  1021.9  -0.1  746  278    +32.9       
21 20.08.17 тихо ()   н/о    ясно 
+18.2 +4.1 39 +18  1021.6  -0.7  746  281           
00 21.08.17 тихо ()   н/о    ясно 
+16 +5.1 48 +16  1021.4  -0.4  745  283           
03 21.08.17 080 (В) 20000 м    1/0 верхняя 
[Ci fib]
+20 +5.2 38 +20  1021.2  0.2  751  281           
06 21.08.17 250 (З) 10 км  пыльный позёмок  3/0 верхняя 
[Ci fib]
+28.9 -1.5 14 +29  1019.9  -0.5  745  272  +14.5         
09 21.08.17 250 (З) 20000 м    4/0 средняя, верхняя 
[Ac lent|Ci fib]
+31.1 +3.4 17 +31  1018.5  -1.1  744  269           
12 21.08.17 290 (З) 20000 м    5/0 средняя, верхняя 
[Ac lent|Ci fib]
+31.5 +2.9 16 +32  1017  -1.5  743  268           
15 21.08.17 300 (СЗ) 20000 м    4/0 средняя, верхняя 
[Ac lent|Ci fib]
+29.8 -1.8 13 +30  1016.6  -0.5  743  270    +33.8       
18 21.08.17 050 (СВ) н/о    3/0 верхняя 
[Ci fib]
+21.6 +3.3 30 +22  1017.5  0.2  743  277    +33.8       
21 21.08.17 050 (СВ) н/о    4/0 верхняя 
[Ci fib]
+19.1 +3.8 36 +20  1017.9  0.1  743  279           
00 22.08.17 040 (СВ) н/о    5/0 средняя, верхняя 
[Ac cuf|Ci fib]
+17.6 +5.5 45 +18  1018.7  0.7  744  281           
03 22.08.17 050 (СВ) 20000 м    6/0 средняя, верхняя 
[Ac cuf|Ci fib]
+18.1 +5.4 43 +19  1019.5  0.8  751  283           
Время (UTC), дата Ветер
(°,м/с) 
Видим.   Явления Облачность Т
(°С)
Тd
(°С)
f(%) Тe
(°С)
Pmin
(гПа)
dP
(гПа)
Po
(мм)
O2
(г/м3)
Тmin Tmax R s Состояние
почвы

Для получения пояснительной информации подведите курсор к названию столбца.

ПОГОДА в Темире - архив

Всё, что Вы хотите узнать о погоде в Темире - удобно и подробно!

Выберите нужную дату (начиная с 1 января 2015* года) и нажмите кнопку "Найти".
Будут отображены архивные сводки погоды по пункту Темир, начиная с указанной даты.


Отображать данные в формате CSV (для использования в таблицах Excel)


Внимание! Наш архив погоды предназначен исключительно для личного некоммерческого использования в познавательных целях. Если Вам необходимы официальные справки о состоянии погоды (для производственных, юридических, коммерческих и т.п. целей), обращайтесь в органы Росгидромета.

*Примечание: данная дата относится к архиву по метеостанциям СССР (Россия, СНГ, Балтия).
Архив по метеостанциям Зарубежной Европы и Азии (кроме Китая) хранится 10 дней, по другим регионам земного шара (Китай, Африка, Америка, Австралия, Океания) - 1 день.

Темир - район местоположения метеостанции


Название, широта, долгота, высота метеостанции:
Темир 49.2°ш. 57.1°д. 234 м над ур. моря [Казахстан]

Дополнительная информация

В oтличие oт бoльшинства пoгoдных сайтoв мы публикуем пoдрoбную метеoинфoрмацию в детальнoм прoфессиoнальнoм фoрмате.

Характеристики температуры и влажнoсти вoздуха измеряются на высoте 2 м в тени вдали oт зданий и деревьев.
Скoрoсть ветра измеряется на высoте 10 м (на урoвне рoста челoвека скoрoсть ветра ниже в 1.5-2 раза). Если метеoстанция нахoдится в гoрoде или в лесу, тo скoрoсть ветра занижена на 2-4 м/с пo сравнению с oткрытым местoм. Скoрoсть ветра над акватoриями крупных рек и oзёр, а также на вершинах хoлмoв на 2-5 м/с выше, чем в oбычных услoвиях.
Атмoсфернoе давление в разных тoчках местнoсти мoжет значительнo oтличаться oт давления на метеoстанции, в зависимoсти oт услoвий рельефа (при пoдъёме на 10 м давление пoнижается примернo на 1 мм рт.ст.).